Temperature
15 15 15 14 14 13 13 13 13 13 13 13 12 12 12 12 12 11 11 11 10 10 10 9 9 9 9 8 8 8 8 8 8 8 8 8 8 8 8 8 8 8 8
15 15 14 14 14 13 13 13 12 12 12 12 12 12 12 12 11 11 11 11 10 10 9 9 9 9 9 8 8 7 7 7 8 8 8 7 7 7 7 7 7 7 7
15 14 14 14 13 13 13 12 12 12 12 12 12 12 12 12 11 11 11 10 10 9 9 9 9 8 8 8 8 7 7 7 7 7 7 7 6 6 6 6 6 6 6
15 14 14 14 13 13 12 12 12 12 12 12 12 12 12 12 11 11 11 10 10 9 9 9 8 8 8 8 7 7 7 7 7 6 6 6 5 5 5 5 5 5 5
15 14 14 13 13 12 12 12 12 12 12 12 12 12 12 11 11 11 11 10 9 9 9 8 8 8 8 7 7 7 7 6 6 6 5 5 4 4 4 4 4 4 4
15 14 14 13 13 12 12 12 12 12 11 11 11 11 11 11 11 11 10 10 9 9 8 8 8 7 7 7 7 6 6 6 6 5 4 4 3 3 3 3 3 3 3
15 14 14 13 13 12 12 12 12 12 11 11 11 11 11 11 11 11 10 10 9 9 8 8 7 7 7 6 6 6 6 5 5 4 3 3 2 2 2 2 2 2 2
15 14 14 14 13 12 12 12 12 12 11 11 11 11 11 11 11 11 10 10 9 8 8 7 7 6 6 6 5 5 5 5 5 4 3 2 1 1 1 1 1 1 1
15 15 14 14 14 13 13 12 12 12 12 11 11 11 11 11 11 10 10 10 9 8 8 7 6 6 5 5 5 5 4 4 4 3 2 1 1 1 1 1 1 1 1
15 15 15 14 14 13 13 12 12 12 12 11 11 11 11 11 11 10 10 9 9 8 7 6 6 5 5 4 4 4 3 3 3 2 1 0 0 -0 -0 -0 -0 0 0
15 15 15 14 14 13 13 12 12 12 11 11 11 11 10 10 10 10 9 9 8 7 7 6 5 5 4 4 3 3 3 2 2 2 1 0 -0 -1 -1 -1 -1 -1 -1
15 15 15 14 14 13 13 13 12 11 11 11 10 10 10 10 10 9 8 8 7 7 6 5 5 4 4 3 3 2 2 2 1 1 0 -1 -1 -1 -1 -2 -2 -2 -2
15 15 15 14 14 13 13 12 12 11 11 10 10 9 9 9 8 8 7 7 6 6 6 5 5 4 3 2 1 1 1 0 0 0 -0 -1 -2 -2 -2 -2 -3 -3 -3
15 15 15 14 14 13 12 12 11 10 10 9 9 8 8 8 7 7 6 6 5 4 5 4 4 3 2 1 0 -0 -0 -1 -1 -1 -1 -1 -2 -2 -2 -3 -3 -4 -4
14 14 13 13 13 12 11 11 10 10 9 8 8 7 7 6 6 5 5 4 3 2 2 3 2 2 1 0 -0 -1 -1 -2 -2 -2 -2 -2 -3 -3 -4 -4 -4 -4 -4
13 13 12 12 11 11 10 10 9 8 7 7 6 6 5 5 5 4 4 3 2 1 1 1 1 0 0 -0 -1 -2 -2 -2 -3 -3 -3 -3 -3 -4 -5 -5 -5 -5 -5
11 11 11 10 10 10 9 8 7 7 6 5 5 4 4 3 3 3 2 2 1 0 -0 -0 -0 -1 -1 -1 -1 -2 -3 -3 -3 -3 -3 -4 -4 -5 -5 -5 -5 -5 -5
10 10 9 9 9 8 8 7 6 5 5 4 4 3 2 2 2 2 1 1 0 -0 -1 -2 -2 -2 -2 -2 -3 -3 -4 -4 -4 -4 -4 -4 -4 -5 -5 -5 -6 -6 -6
9 8 8 8 7 7 6 5 4 4 3 3 3 2 2 1 1 1 0 -0 -1 -1 -2 -3 -3 -3 -4 -4 -4 -4 -5 -5 -4 -4 -4 -4 -4 -5 -5 -5 -6 -6 -6
7 7 7 6 6 5 4 4 3 3 2 2 2 1 1 1 0 -0 -0 -1 -1 -2 -3 -4 -5 -5 -5 -5 -6 -6 -6 -5 -5 -4 -4 -5 -5 -5 -5 -5 -5 -5 -5
6 5 5 4 4 3 3 3 2 2 2 1 1 1 0 0 -0 -1 -2 -2 -3 -3 -4 -5 -6 -6 -6 -6 -7 -7 -7 -7 -6 -5 -5 -5 -5 -5 -5 -5 -5 -5 -5
4 4 3 3 2 2 2 2 2 1 1 1 0 0 -0 -1 -1 -2 -2 -3 -4 -5 -6 -7 -7 -7 -7 -7 -7 -8 -8 -8 -8 -7 -7 -7 -6 -6 -5 -5 -5 -5 -6
2 2 2 2 1 1 1 1 1 1 0 0 -0 -1 -1 -2 -2 -3 -3 -4 -4 -5 -6 -7 -7 -7 -7 -7 -8 -8 -8 -8 -8 -7 -8 -7 -6 -6 -6 -6 -6 -6 -6
1 1 1 1 1 0 0 0 0 -0 -0 -1 -1 -1 -2 -2 -3 -4 -4 -5 -5 -5 -6 -7 -7 -7 -7 -8 -8 -8 -8 -8 -7 -7 -7 -8 -6 -6 -6 -6 -6 -6 -6
0 0 0 0 0 -0 -1 -1 -1 -1 -1 -2 -2 -3 -3 -3 -4 -5 -6 -6 -6 -6 -6 -6 -7 -7 -7 -7 -7 -8 -8 -8 -8 -7 -7 -8 -7 -7 -7 -6 -6 -6 -6
-0 -0 -0 -0 -1 -1 -1 -1 -1 -2 -2 -2 -3 -3 -4 -4 -5 -6 -7 -7 -7 -7 -6 -6 -6 -6 -6 -6 -7 -7 -8 -8 -9 -9 -7 -8 -8 -9 -9 -7 -7 -6 -6
Wind_Speed
6 6 6 7 6 7 7 7 7 7 7 7 8 8 8 8 9 9 10 11 10 9 8 8 8 7 7 7 7 8 8 8 8 9 9 9 10 10 10 11 11 11 11
9 7 6 6 7 8 8 8 7 6 5 6 6 7 7 7 8 9 9 10 10 9 8 7 7 7 7 7 7 7 8 8 8 8 8 9 9 10 10 11 11 12 12
13 10 6 5 8 10 10 9 8 7 5 5 4 5 6 6 7 8 8 9 9 9 8 7 7 6 7 7 8 8 8 8 8 8 8 9 9 10 10 11 12 12 13
16 12 7 6 11 12 10 6 5 4 4 4 3 3 4 5 6 6 7 8 8 8 7 6 6 6 6 7 8 8 8 8 8 8 9 9 10 10 11 12 13 14 14
18 14 8 9 12 9 6 6 4 4 4 4 4 3 2 2 4 5 5 6 6 6 6 5 5 5 5 6 8 9 9 9 9 9 10 10 11 12 12 13 14 15 16
19 16 10 10 12 7 6 6 5 3 3 5 4 3 2 1 2 3 4 5 5 5 5 5 4 4 4 6 7 9 9 10 10 11 11 12 13 14 15 15 16 17 18
19 16 9 9 10 10 10 9 5 5 3 3 4 2 2 1 2 1 3 4 4 5 6 5 3 2 3 5 6 8 9 10 11 12 13 14 15 16 17 17 18 19 19
18 16 13 12 11 9 10 10 7 5 3 4 4 3 2 1 1 1 2 3 3 5 5 4 3 1 1 3 5 7 9 10 12 14 15 16 17 18 19 20 20 21 21
18 17 15 13 13 13 13 12 10 9 6 3 2 4 4 6 3 1 1 1 3 2 3 4 3 1 2 2 4 6 8 11 14 16 17 18 19 20 21 22 22 22 22
15 16 15 14 14 12 12 12 10 7 7 5 2 1 1 3 4 3 1 1 2 3 3 2 2 2 2 3 4 6 10 13 15 17 19 20 21 23 23 24 24 23 23
12 13 14 13 14 12 12 12 10 8 6 6 5 4 2 2 2 3 3 2 1 2 3 2 3 3 3 3 4 7 12 15 17 19 21 22 24 24 25 24 24 24 24
8 11 12 12 12 11 12 11 11 11 7 7 6 4 4 4 3 3 3 2 2 2 2 2 3 4 4 2 3 10 14 17 19 21 23 24 25 25 25 25 25 25 25
9 13 13 12 11 10 10 10 10 9 8 9 7 4 3 3 3 3 3 2 1 2 2 2 2 4 4 2 6 13 15 19 21 23 24 25 25 25 25 25 25 26 26
11 11 11 10 10 10 10 10 8 8 7 8 8 6 5 4 3 3 4 4 1 2 2 4 1 3 5 5 9 15 15 19 22 24 25 25 25 25 25 25 26 26 26
6 9 10 10 10 11 11 11 9 9 9 8 8 7 5 4 3 3 3 3 4 2 3 3 2 2 5 7 12 15 14 19 23 24 25 25 25 25 26 26 26 26 27
9 11 11 11 11 11 11 10 10 10 10 8 7 8 6 3 3 3 3 2 3 4 4 3 4 4 6 11 15 16 17 21 22 24 25 25 26 26 26 26 27 27 27
11 12 12 13 13 12 12 11 11 11 11 8 7 7 6 4 3 3 2 2 2 3 5 4 3 3 4 7 13 16 17 17 18 23 26 27 26 26 26 26 26 27 27
11 12 13 13 13 13 12 13 12 11 10 9 7 6 5 3 3 2 2 2 3 4 5 6 4 4 6 7 8 9 14 16 17 23 26 26 26 26 26 26 26 27 27
12 13 14 14 13 13 13 12 11 11 10 8 7 6 4 3 2 2 2 3 3 3 4 5 5 4 5 6 7 8 9 11 17 20 23 24 25 25 25 27 28 28 29
13 13 13 14 14 13 13 13 11 11 10 7 6 4 3 3 2 2 3 4 4 4 4 5 6 6 6 6 6 7 10 7 10 15 21 22 23 25 27 28 29 29 29
14 14 14 14 13 12 11 12 11 10 9 7 5 3 2 1 1 2 2 3 3 3 4 5 7 7 7 6 7 7 12 11 10 11 10 9 12 13 18 24 26 27 28
14 14 14 13 12 10 16 16 12 9 7 6 5 3 1 1 3 5 7 8 7 5 5 5 6 8 10 9 8 10 12 13 10 4 6 11 9 13 11 15 24 28 29
14 14 13 13 12 13 16 15 12 8 6 5 4 2 1 1 4 4 7 9 9 12 13 9 9 10 11 10 11 13 12 12 14 10 11 16 10 13 11 19 27 29 30
12 12 12 11 10 11 13 12 11 7 5 4 2 2 1 2 4 6 6 6 6 7 10 8 8 10 11 11 10 11 12 11 11 9 8 11 12 13 13 12 25 29 29
11 10 10 9 9 8 10 10 9 5 4 2 1 0 1 3 8 11 6 6 7 7 12 16 18 18 21 22 18 9 8 10 13 9 5 5 6 8 10 12 16 23 23
10 10 9 8 7 5 7 8 7 3 2 1 1 1 5 7 10 12 6 5 7 8 9 10 11 15 14 15 17 8 6 9 9 7 4 4 5 6 7 5 6 10 15
Wind_Direction
170 172 171 169 164 157 147 135 129 122 116 117 123 125 122 120 115 107 104 109 111 111 105 95 83 70 60 52 44 38 30 26 22 17 13 10 8 4 1 359 356 351 347
180 176 174 175 175 171 162 151 144 134 125 123 118 126 130 130 126 119 113 112 114 114 110 98 83 70 57 45 36 29 22 17 12 7 2 359 357 354 351 349 346 342 339
188 184 178 179 181 173 158 143 132 123 119 115 112 126 135 139 138 132 126 119 116 115 115 103 88 71 53 38 27 18 10 6 359 353 349 345 343 340 338 337 336 332 329
194 187 185 187 180 168 157 144 137 122 126 129 128 126 136 146 149 147 140 133 126 120 118 111 93 72 48 28 14 4 357 353 346 340 336 333 331 328 327 327 326 324 321
196 192 191 186 173 164 160 158 145 140 148 145 133 113 114 143 158 157 154 150 142 134 122 112 94 72 40 17 3 352 346 340 334 330 326 323 320 318 317 317 317 316 314
197 194 190 180 171 165 167 162 146 124 133 141 119 94 72 117 150 163 172 166 161 152 141 122 101 64 28 8 354 344 339 332 327 322 319 316 312 311 310 310 309 309 308
195 193 188 179 177 181 179 165 142 135 131 140 117 98 45 57 135 158 170 166 170 167 154 140 118 71 24 7 355 343 335 328 323 318 314 311 309 307 306 305 305 304 302
195 194 189 187 185 180 173 172 155 143 141 165 148 139 185 275 240 138 161 174 172 163 157 154 136 93 43 16 359 348 339 330 322 317 312 309 307 306 304 303 302 301 299
197 196 192 187 186 184 185 183 173 158 156 172 184 159 165 212 203 214 165 159 172 168 168 168 158 134 104 52 19 354 343 332 322 315 311 309 307 305 303 302 300 299 297
198 196 191 187 187 187 186 185 178 166 149 159 162 121 117 145 158 188 239 223 213 197 193 186 177 161 128 78 35 358 344 333 322 316 312 309 306 304 302 300 299 297 297
197 193 189 187 188 188 185 179 173 169 162 159 159 152 131 72 93 154 197 223 264 232 224 217 203 179 152 94 36 354 342 332 323 316 312 307 304 302 300 299 299 297 296
195 193 188 189 187 184 180 178 174 173 167 156 153 151 153 156 169 159 171 186 240 278 282 267 218 189 177 132 2 341 336 327 320 315 310 306 303 302 301 299 297 296 294
200 198 190 188 183 177 170 164 163 164 155 149 147 140 132 128 132 135 134 148 211 301 309 288 226 200 196 233 326 329 328 321 316 311 307 304 304 303 300 298 295 294 293
202 189 185 179 168 160 159 153 149 144 138 134 132 126 120 113 112 126 138 141 161 293 289 277 297 225 228 267 308 319 315 313 312 308 306 304 303 300 298 295 294 292 291
170 163 162 157 152 149 147 143 138 133 129 123 123 118 112 107 105 107 121 141 158 221 269 270 274 260 246 279 300 307 302 307 308 307 305 302 300 298 296 294 292 291 290
150 149 149 146 143 140 137 131 128 125 122 118 120 117 111 112 116 118 133 148 161 181 233 252 246 252 275 290 300 306 301 305 307 305 302 300 299 296 294 292 291 290 289
146 148 145 140 138 135 131 126 124 123 117 114 111 115 121 127 129 134 144 160 181 183 233 262 251 265 275 280 293 295 296 292 291 300 301 300 298 297 295 294 292 291 289
138 137 135 133 131 129 126 124 124 121 122 122 116 116 121 127 125 143 171 197 212 209 222 265 273 274 269 276 280 285 297 299 295 299 300 300 299 298 296 294 293 292 291
126 127 128 127 125 122 119 116 117 115 113 113 115 121 129 135 148 186 210 225 234 237 223 248 274 266 269 276 284 286 287 288 293 297 299 299 297 296 296 296 296 295 293
119 119 118 117 117 115 114 113 113 111 108 106 107 118 134 154 179 219 238 243 245 253 252 258 272 275 271 271 274 292 301 289 291 295 292 291 292 295 295 295 295 294 292
111 110 109 108 108 108 112 113 113 113 113 113 112 109 106 101 287 260 270 258 247 251 261 268 281 289 290 294 294 293 300 300 288 278 278 279 285 285 287 290 292 290 289
105 105 106 107 105 108 117 117 117 116 119 124 121 103 73 40 348 344 322 306 293 283 281 275 286 291 294 292 294 295 298 301 301 267 283 292 285 286 285 283 287 289 290
102 101 101 103 104 113 118 117 118 119 121 122 118 107 74 352 1 313 301 302 301 300 298 293 287 286 289 289 289 290 288 289 291 292 297 294 288 286 284 286 290 291 291
100 101 102 104 106 114 117 119 120 113 111 111 121 151 224 305 305 291 268 271 272 278 287 287 268 272 276 279 276 284 291 293 286 279 273 284 288 286 286 281 287 287 288
98 98 100 102 102 105 111 116 117 110 111 118 130 84 314 285 301 312 309 291 290 290 301 300 297 296 299 302 304 302 299 300 299 294 259 260 281 290 287 279 277 282 286
100 99 95 93 95 94 107 111 113 113 108 87 16 311 319 314 311 318 310 296 297 296 294 301 304 304 300 298 301 290 279 288 293 295 256 257 281 306 299 262 256 274 282
Height
1538 1540 1541 1543 1545 1546 1548 1549 1550 1551 1552 1553 1553 1554 1554 1554 1553 1553 1553 1552 1552 1551 1550 1550 1549 1549 1548 1548 1547 1546 1545 1544 1543 1543 1542 1541 1540 1540 1539 1538 1537 1537 1536
1536 1538 1540 1541 1543 1545 1546 1548 1549 1550 1551 1551 1552 1552 1552 1552 1552 1552 1551 1551 1550 1550 1549 1548 1548 1547 1547 1546 1545 1545 1544 1542 1541 1540 1540 1539 1538 1537 1536 1535 1534 1534 1533
1533 1535 1537 1539 1541 1542 1544 1545 1547 1548 1549 1549 1550 1550 1550 1550 1550 1550 1549 1549 1548 1548 1547 1547 1546 1546 1545 1544 1544 1543 1542 1540 1539 1538 1537 1536 1535 1534 1533 1532 1531 1530 1529
1530 1532 1534 1536 1538 1540 1541 1543 1544 1545 1546 1547 1548 1548 1548 1548 1548 1548 1547 1547 1546 1546 1545 1545 1544 1543 1543 1542 1541 1540 1539 1538 1536 1535 1534 1533 1532 1531 1529 1528 1527 1526 1525
1526 1528 1530 1533 1535 1536 1538 1540 1541 1543 1544 1545 1545 1546 1546 1546 1545 1545 1545 1545 1544 1544 1543 1542 1542 1541 1540 1540 1539 1538 1536 1535 1533 1532 1531 1529 1528 1527 1526 1525 1523 1522 1521
1521 1524 1526 1529 1531 1532 1534 1536 1538 1539 1541 1542 1542 1543 1543 1543 1542 1542 1542 1542 1541 1541 1540 1540 1539 1538 1538 1537 1535 1534 1533 1531 1530 1528 1527 1525 1524 1523 1522 1521 1519 1518 1516
1516 1519 1521 1524 1526 1528 1530 1532 1534 1535 1536 1538 1539 1539 1539 1539 1539 1539 1539 1538 1538 1538 1537 1536 1536 1535 1534 1533 1532 1530 1529 1527 1525 1524 1522 1521 1520 1519 1517 1516 1514 1513 1511
1510 1513 1515 1517 1520 1522 1525 1527 1528 1530 1532 1533 1535 1535 1536 1536 1534 1535 1534 1534 1534 1534 1533 1532 1532 1531 1530 1529 1527 1526 1524 1522 1521 1519 1518 1516 1515 1514 1512 1510 1509 1507 1505
1504 1506 1509 1511 1514 1516 1518 1520 1523 1525 1526 1528 1530 1531 1531 1530 1530 1530 1530 1530 1530 1530 1529 1529 1528 1527 1526 1524 1522 1521 1518 1517 1515 1513 1512 1510 1509 1507 1506 1504 1502 1500 1499
1497 1499 1502 1504 1507 1509 1511 1514 1516 1518 1521 1522 1524 1525 1526 1526 1527 1526 1526 1526 1526 1525 1525 1524 1523 1522 1521 1519 1517 1515 1513 1511 1509 1507 1505 1503 1502 1500 1498 1496 1494 1492 1491
1489 1491 1494 1497 1499 1502 1504 1507 1509 1512 1514 1516 1518 1519 1520 1521 1521 1521 1521 1521 1521 1521 1521 1520 1519 1518 1516 1514 1512 1509 1507 1505 1502 1500 1498 1496 1494 1492 1490 1488 1486 1484 1482
1480 1483 1486 1489 1492 1494 1497 1500 1503 1505 1508 1510 1512 1513 1514 1515 1515 1516 1516 1516 1516 1517 1516 1516 1514 1513 1511 1509 1506 1503 1501 1498 1495 1492 1490 1488 1485 1483 1481 1478 1476 1474 1473
1471 1474 1477 1480 1483 1487 1490 1493 1496 1498 1501 1503 1505 1506 1508 1509 1510 1511 1511 1511 1511 1510 1510 1510 1509 1507 1505 1503 1500 1497 1494 1491 1488 1485 1482 1479 1477 1474 1471 1469 1467 1465 1463
1463 1467 1470 1473 1476 1479 1483 1486 1489 1492 1494 1497 1498 1500 1502 1503 1504 1505 1506 1506 1505 1504 1503 1504 1503 1501 1499 1497 1493 1490 1486 1483 1480 1476 1473 1470 1467 1464 1462 1459 1457 1456 1454
1456 1459 1462 1465 1469 1473 1476 1479 1482 1485 1488 1490 1492 1494 1496 1498 1498 1499 1500 1501 1501 1499 1497 1497 1497 1495 1493 1490 1487 1482 1478 1475 1471 1468 1465 1462 1459 1456 1453 1451 1448 1447 1445
1448 1451 1455 1459 1463 1467 1470 1473 1476 1479 1482 1485 1487 1489 1491 1493 1494 1494 1495 1496 1495 1494 1492 1490 1490 1490 1487 1484 1481 1476 1472 1468 1464 1461 1457 1454 1450 1447 1444 1442 1440 1438 1436
1442 1446 1450 1453 1457 1461 1465 1468 1472 1474 1477 1481 1482 1485 1487 1489 1489 1490 1490 1491 1490 1489 1486 1484 1484 1482 1480 1477 1473 1469 1465 1460 1456 1453 1449 1446 1442 1439 1437 1434 1432 1429 1427
1438 1441 1445 1449 1453 1457 1461 1464 1468 1471 1474 1477 1479 1481 1484 1485 1485 1485 1486 1486 1485 1483 1480 1477 1475 1474 1472 1469 1465 1461 1457 1453 1449 1445 1442 1438 1435 1432 1429 1426 1423 1421 1418
1434 1438 1442 1446 1450 1454 1458 1462 1466 1469 1472 1474 1476 1479 1481 1481 1481 1482 1481 1481 1479 1477 1475 1471 1468 1466 1464 1461 1456 1452 1449 1445 1442 1438 1434 1431 1427 1424 1421 1418 1415 1412 1409
1432 1436 1439 1444 1448 1452 1456 1460 1464 1467 1469 1472 1474 1476 1477 1477 1477 1477 1477 1475 1474 1472 1469 1466 1462 1459 1456 1454 1450 1444 1439 1436 1433 1430 1427 1423 1420 1417 1414 1410 1406 1402 1399
1431 1435 1439 1443 1447 1452 1456 1459 1463 1465 1468 1470 1471 1472 1473 1473 1473 1472 1471 1470 1468 1466 1463 1460 1456 1453 1450 1447 1443 1438 1433 1428 1424 1422 1418 1414 1411 1407 1404 1400 1396 1393 1389
1431 1435 1440 1444 1448 1452 1456 1459 1462 1464 1466 1468 1469 1470 1470 1469 1468 1467 1467 1465 1464 1461 1457 1454 1451 1447 1444 1441 1437 1433 1428 1423 1417 1415 1410 1405 1403 1398 1394 1391 1387 1383 1380
1433 1437 1441 1446 1449 1453 1456 1459 1461 1463 1465 1466 1466 1466 1466 1465 1464 1463 1461 1460 1458 1456 1453 1450 1446 1442 1439 1436 1432 1427 1423 1419 1413 1410 1405 1395 1394 1389 1385 1381 1378 1375 1371
1437 1440 1444 1448 1451 1454 1457 1459 1460 1462 1463 1464 1463 1463 1462 1461 1459 1458 1455 1453 1452 1450 1447 1444 1441 1437 1434 1431 1427 1423 1418 1411 1406 1403 1399 1390 1384 1380 1375 1372 1369 1366 1362
1440 1444 1447 1450 1453 1455 1457 1459 1460 1461 1461 1461 1460 1459 1458 1457 1455 1453 1451 1448 1446 1444 1442 1439 1436 1433 1430 1426 1423 1417 1412 1406 1397 1393 1392 1384 1376 1370 1363 1360 1358 1356 1352
1444 1447 1449 1452 1454 1456 1457 1458 1459 1459 1459 1458 1457 1456 1454 1452 1450 1448 1446 1443 1440 1438 1435 1433 1430 1428 1425 1421 1417 1413 1407 1401 1393 1386 1382 1378 1370 1365 1353 1346 1346 1345 1342